Hurricane Symbol View the latest observations near Atlantic Tropical Storm Alberto.

Station KDAA2 - 9457292 - Kodiak Island, AK Image indicating link to RSS feed of recent meteorological observations for station KDAA2


Conditions at KDAA2 as of
(3:48 pm AKDT)
2348 GMT on 06/19/2024:
     

Click on the graph icon in the table below to see a time series plot of the last five days of that observation.

5-day plot - Wind Direction Wind Direction (WDIR): NE ( 50 deg true )
5-day plot - Wind Speed Wind Speed (WSPD): 4.1 kts
5-day plot - Wind Gust Wind Gust (GST): 7.0 kts
5-day plot - Atmospheric Pressure Atmospheric Pressure (PRES):30.07 in
5-day plot - Air Temperature Air Temperature (ATMP): 49.3 °F
5-day plot - Water Temperature Water Temperature (WTMP): 46.8 °F
5-day plot - Wind Chill Wind Chill (CHILL): 47.3 °F
5-day plot - Wind Speed at 10 Meters Wind Speed at 10 meters (WSPD10M): 3.9 kts
5-day plot - Wind Speed at 20 Meters Wind Speed at 20 meters (WSPD20M): 5.8 kts
5-day plot -  Wind Speed, Wind Gust and Atmospheric Pressure Combined plot of Wind Speed, Gust, and Air Pressure
NOS Water Level Observation Network Water Level
Previous observations
TIME
(AKDT)
5-day plot - Wind Direction
WDIR
 
5-day plot - Wind Speed
WSPD
kts
5-day plot - Wind Gust
GST
kts
5-day plot - Wave Height
WVHT
ft
5-day plot - Dominant Wave Period
DPD
sec
5-day plot - Average Wave Period
APD
sec
5-day plot - Mean Wave Direction
MWD
 
5-day plot - Atmospheric Pressure
PRES
in
5-day plot - Pressure Tendency
PTDY
in
5-day plot - Air Temperature
ATMP
°F
5-day plot - Water Temperature
WTMP
°F
5-day plot - Dew Point
DEWP
°F
5-day plot - Salinity
SAL
psu
5-day plot - Visibility
VIS
nmi
5-day plot - Tide (above MLLW)
TIDE
ft
2024-06-19 03:42 pmENE 4.1 7.0----30.07- 48.7 46.8----
2024-06-19 03:36 pm NE 4.1 8.0----30.07- 48.9 46.8----
2024-06-19 03:30 pmENE 5.1 7.0----30.07- 48.7 46.8----
2024-06-19 03:24 pmENE 4.1 6.0----30.08- 48.9 46.8----
2024-06-19 03:18 pmESE 1.9 6.0----30.08- 49.3 46.8----
2024-06-19 03:12 pmENE 4.1 6.0----30.08- 48.7 46.6----
2024-06-19 03:06 pmENE 5.1 7.0----30.08- 48.4 46.6----
2024-06-19 03:00 pmENE 4.1 7.0----30.08+0.00 48.4 46.6----
2024-06-19 02:54 pmENE 2.9 7.0----30.08- 48.4 46.6----
2024-06-19 02:48 pmENE 5.1 7.0----30.08-- 46.6----
2024-06-19 02:42 pmENE 4.1 8.0----30.08-- 46.6----
2024-06-19 02:36 pm NE 4.1 6.0----30.07-- 46.4----
2024-06-19 02:30 pmENE 5.1 6.0----30.08- 47.8 46.4----
2024-06-19 02:24 pmENE 5.1 8.0----30.08- 47.8 46.4----
2024-06-19 02:18 pmENE 2.9 6.0----30.08- 47.8-----
2024-06-19 02:12 pmENE 4.1 7.0----30.07- 47.7-----
2024-06-19 02:06 pmENE 4.1 8.9----30.08- 47.5-----
2024-06-19 02:00 pmENE 5.1 8.0----30.08+0.00 47.3 46.0----
2024-06-19 01:54 pm E 6.0 8.0----30.07- 47.3 45.9----
2024-06-19 01:48 pm NE 5.1 8.0----30.07- 47.7 45.9----
2024-06-19 01:42 pm NE 5.1 7.0----30.07- 47.5 45.9----
2024-06-19 01:36 pmENE 6.0 7.0----30.07- 47.7 45.9----
2024-06-19 01:30 pm NE 5.1 7.0----30.07- 48.0 45.9----
2024-06-19 01:24 pmENE 5.1 7.0----30.07- 48.2 45.9----
2024-06-19 01:18 pmENE 2.9 6.0----30.07- 48.2 45.7----
2024-06-19 01:12 pm E 1.9 5.1----30.07- 48.4 45.7----
2024-06-19 01:06 pm E 1.0 7.0----30.07- 48.4 45.7----
2024-06-19 01:00 pmENE 5.1 8.0----30.07+0.00 48.2 45.7----
2024-06-19 12:54 pmENE 4.1 8.9----30.07- 48.6 45.7----
2024-06-19 12:48 pm E 2.9 7.0----30.07-------
2024-06-19 12:42 pm E 5.1 8.0----30.07- 48.4 45.7----
2024-06-19 12:36 pmENE 2.9 7.0----30.07- 48.4 45.7----
2024-06-19 12:30 pm E 2.9 5.1----30.07- 48.2 45.7----
2024-06-19 12:24 pm E 5.1 8.9----30.07- 47.5 45.7----
2024-06-19 12:18 pmENE 5.1 8.9----30.07-------
2024-06-19 12:12 pmENE 5.1 8.0----30.08- 47.5 45.7----
2024-06-19 12:06 pmENE 4.1 6.0----30.07- 47.3 45.7----
2024-06-19 12:00 pmENE 4.1 8.0----30.08+0.01 47.3 45.9----
2024-06-19 11:54 amENE 4.1 7.0----30.08- 47.1 45.9----
2024-06-19 11:48 amENE 5.1 8.0----30.08-- 45.9----
2024-06-19 11:42 amENE 6.0 9.9----30.08- 46.9 45.9----
2024-06-19 11:36 am E 4.1 8.0----30.08- 47.1 45.9----
2024-06-19 11:30 am E 5.1 7.0----30.08- 46.9 45.9----
2024-06-19 11:24 am E 4.1 7.0----30.08- 46.9 46.0----
2024-06-19 11:18 amENE 2.9 6.0----30.08- 46.8 46.0----
2024-06-19 11:12 amENE 1.9 7.0----30.08- 46.8 46.0----
2024-06-19 11:06 amENE 1.9 4.1----30.08- 46.9 46.0----
2024-06-19 11:00 am E 1.9 5.1----30.08+0.02 46.9 46.0----
2024-06-19 10:54 amENE 1.9 4.1----30.08- 46.8 46.0----
2024-06-19 10:48 amSSE 1.9 4.1----30.07- 46.8 46.0----
2024-06-19 10:42 am- 0.0 1.9----30.08- 46.6 46.0----
2024-06-19 10:36 am- 0.0 2.9----30.08- 46.6 46.0----
2024-06-19 10:30 amENE 1.0 4.1----30.08- 46.4 46.0----
2024-06-19 10:24 amENE 4.1 6.0----30.07- 46.0 46.0----
2024-06-19 10:18 amESE 2.9 4.1----30.07- 46.2 46.2----
2024-06-19 10:12 amESE 1.0 2.9----30.07- 46.6 46.2----
2024-06-19 10:06 am- 0.0 6.0----30.07- 46.8 46.2----
2024-06-19 10:00 amENE 2.9 6.0----30.07+0.01 46.4 46.4----
2024-06-19 09:54 am NE 2.9 5.1----30.07- 46.6 46.6----
2024-06-19 09:48 amENE 4.1 5.1----30.07- 46.4 46.8----
2024-06-19 09:42 amENE 1.9 6.0----30.07- 46.4 46.9----
2024-06-19 09:36 amENE 2.9 4.1----30.06- 46.2 47.3----
2024-06-19 09:30 amENE 4.1 6.0----30.06- 46.4 47.7----
2024-06-19 09:24 am- 0.0 1.9----30.06- 46.6 47.8----
2024-06-19 09:18 am E 2.9 4.1----30.06- 46.2 48.0----
2024-06-19 09:12 amENE 1.9 2.9----30.06- 46.2 48.2----
2024-06-19 09:06 am E 1.0 1.9----30.06- 46.2 48.2----
2024-06-19 09:00 amENE 1.9 5.1----30.06+0.00 45.9 48.4----
2024-06-19 08:54 am NE 1.9 4.1----30.06- 45.7 48.4----
2024-06-19 08:48 am E 1.0 1.9----30.06-- 48.4----
2024-06-19 08:42 am- 0.0 4.1----30.06- 46.0 48.4----
2024-06-19 08:36 amENE 1.9 5.1----30.06- 45.9 48.4----
2024-06-19 08:30 amENE 1.0 2.9----30.06- 46.0 48.4----
2024-06-19 08:24 am NE 1.9 2.9----30.06- 45.9 48.4----
2024-06-19 08:18 amENE 1.9 2.9----30.06-------
2024-06-19 08:12 am E 1.0 1.9----30.06- 45.9 48.4----
2024-06-19 08:06 amENE 1.0 2.9----30.06- 45.9 48.6----
2024-06-19 08:00 amENE 1.9 4.1----30.06+0.00 45.7 48.6----
2024-06-19 07:54 am NE 1.9 2.9----30.06- 45.9 48.6----
2024-06-19 07:48 am- 0.0 1.9----30.06-- 48.6----
2024-06-19 07:42 amENE 1.0 2.9----30.06- 45.9 48.6----
2024-06-19 07:36 amENE 1.9 4.1----30.06- 45.9 48.6----
2024-06-19 07:30 amENE 1.0 2.9----30.06- 46.0 48.6----
2024-06-19 07:24 amENE 2.9 7.0----30.06- 46.0 48.6----
2024-06-19 07:18 am- 0.0 1.9----30.06- 46.4 48.6----
2024-06-19 07:12 am- 0.0 1.0----30.06- 46.4 48.6----
2024-06-19 07:06 am- 0.0 0.0----30.06- 46.4 48.6----
2024-06-19 07:00 am- 0.0 1.0----30.06-0.01 46.4 48.4----
2024-06-19 06:54 am- 0.0 1.0----30.06- 46.2 48.4----
2024-06-19 06:48 am- 0.0 1.9----30.06- 46.2 48.4----
2024-06-19 06:42 am- 0.0 1.9----30.06- 46.0 48.4----
2024-06-19 06:36 am- 0.0 1.9----30.06- 46.0 48.4----
2024-06-19 06:30 amENE 1.9 2.9----30.06- 46.0 48.4----
2024-06-19 06:24 am- 0.0 1.9----30.06- 46.0 48.2----
2024-06-19 06:18 am- 0.0 1.0----30.06-- 48.2----
2024-06-19 06:12 am- 0.0 1.9----30.06- 46.0 48.2----
2024-06-19 06:06 am- 0.0 1.0----30.06- 45.9 48.0----
2024-06-19 06:00 am E 1.0 2.9----30.06-0.02 45.7 48.0----
2024-06-19 05:54 amENE 1.0 1.9----30.06- 45.9 48.0----
2024-06-19 05:48 am- 0.0 1.9----30.06- 45.9 47.8----
2024-06-19 05:42 am- 0.0 0.0----30.05- 45.9 47.8----
2024-06-19 05:36 am- 0.0 0.0----30.05- 45.9 47.8----
2024-06-19 05:30 am- 0.0 1.0----30.06- 46.0 47.7----
2024-06-19 05:24 am- 0.0 1.0----30.06- 46.0 47.7----
2024-06-19 05:18 am- 0.0 1.0----30.06- 46.0 47.5----
2024-06-19 05:12 am- 0.0 1.0----30.06- 45.9 47.5----
2024-06-19 05:06 am- 0.0 1.0----30.06- 45.9 47.5----
2024-06-19 05:00 am- 0.0 1.0----30.06-0.02 45.9 47.3----
2024-06-19 04:54 am- 0.0 1.0----30.06- 45.9 47.3----
2024-06-19 04:48 am- 0.0 1.0----30.06- 45.9 47.3----
2024-06-19 04:42 am- 0.0 1.0----30.06- 45.9 47.1----
2024-06-19 04:36 am- 0.0 1.9----30.06- 45.9 47.1----
2024-06-19 04:30 am- 0.0 1.9----30.06- 45.9 46.9----
2024-06-19 04:24 amENE 1.9 4.1----30.06- 45.9 46.9----
2024-06-19 04:18 am E 1.9 5.1----30.06- 45.9 46.8----
2024-06-19 04:12 am E 2.9 5.1----30.06- 45.9 46.8----
2024-06-19 04:06 amENE 2.9 2.9----30.06- 45.9 46.6----
2024-06-19 04:00 am- 0.0 1.9----30.07-0.02 45.9 46.6----
2024-06-19 03:54 amESE 1.0 1.9----30.07- 45.9 46.6----
2024-06-19 03:48 am E 1.9 4.1----30.07-- 46.4----
2024-06-19 03:42 am E 2.9 5.1----30.07-- 46.4----
2024-06-19 03:36 am E 2.9 2.9----30.07-- 46.2----
2024-06-19 03:30 am E 1.0 2.9----30.07- 45.9 46.2----
2024-06-19 03:24 am- 0.0 2.9----30.07- 46.0 46.2----
2024-06-19 03:18 am- 0.0 1.9----30.07- 45.9 46.0----
2024-06-19 03:12 am E 1.0 2.9----30.07- 46.0 46.0----
2024-06-19 03:06 am- 0.0 5.1----30.07- 45.9 45.9----
2024-06-19 03:00 amENE 2.9 5.1----30.08+0.00 45.9 45.9----
2024-06-19 02:54 am E 1.9 4.1----30.08- 45.9 45.9----
2024-06-19 02:48 am- 0.0 1.9----30.07- 45.9 45.7----
2024-06-19 02:42 am E 1.9 2.9----30.08- 45.9 45.7----
2024-06-19 02:36 am E 1.0 4.1----30.08- 45.9 45.7----
2024-06-19 02:30 am E 1.9 2.9----30.08- 45.9 45.7----
2024-06-19 02:24 am E 1.9 2.9----30.08- 46.0 45.7----
2024-06-19 02:18 am- 0.0 2.9----30.08- 46.0 45.5----
2024-06-19 02:12 am E 1.0 2.9----30.08- 46.0 45.5----
2024-06-19 02:06 am NE 1.9 4.1----30.08- 46.2 45.5----
2024-06-19 02:00 amSSE 1.0 2.9----30.08+0.00 46.2 45.5----
2024-06-19 01:54 am- 0.0 1.0----30.08- 46.2 45.5----
2024-06-19 01:48 am E 1.9 2.9----30.08- 46.2 45.5----
2024-06-19 01:42 am- 0.0 1.9----30.08- 46.6 45.5----
2024-06-19 01:36 am- 0.0 1.9----30.08- 46.4 45.5----
2024-06-19 01:30 amENE 1.9 2.9----30.08- 46.2 45.5----
2024-06-19 01:24 am- 0.0 2.9----30.08- 46.6 45.5----
2024-06-19 01:18 am E 1.0 2.9----30.08- 46.2 45.5----
2024-06-19 01:12 am- 0.0 1.9----30.08- 46.2 45.5----
2024-06-19 01:06 am- 0.0 1.9----30.08- 46.6 45.5----
2024-06-19 01:00 amNNE 1.0 1.9----30.09+0.00 46.4 45.5----
2024-06-19 12:54 am- 0.0 1.0----30.09- 46.4 45.5----
2024-06-19 12:48 am- 0.0 1.9----30.09- 46.2 45.5----
2024-06-19 12:42 am- 0.0 1.0----30.09- 46.0 45.5----
2024-06-19 12:36 am- 0.0 1.9----30.09- 46.0 45.5----
2024-06-19 12:30 am E 1.9 1.9----30.08- 46.0 45.5----
2024-06-19 12:24 am- 0.0 1.0----30.08- 46.0 45.5----
2024-06-19 12:18 am- 0.0 1.9----30.08-------
2024-06-19 12:12 am SE 1.0 5.1----30.08- 46.0 45.5----
2024-06-19 12:06 am E 1.0 4.1----30.08- 46.2 45.5----
2024-06-19 12:00 amENE 1.9 4.1----30.08+0.00 46.2 45.5----
2024-06-18 11:54 pmENE 1.9 4.1----30.08- 46.2 45.5----
2024-06-18 11:48 pm- 0.0 1.9----30.08- 46.2 45.5----
2024-06-18 11:42 pm- 0.0 2.9----30.08- 46.0 45.5----
2024-06-18 11:36 pm S 1.0 1.9----30.08- 46.0 45.5----
2024-06-18 11:30 pm- 0.0 4.1----30.08- 46.0 45.5----
2024-06-18 11:24 pm E 1.0 2.9----30.08- 46.2 45.5----
2024-06-18 11:18 pm E 1.0 2.9----30.08-- 45.5----
2024-06-18 11:12 pm- 0.0 1.9----30.08- 46.2 45.5----
2024-06-18 11:06 pm- 0.0 1.9----30.08- 46.2 45.5----
2024-06-18 11:00 pm- 0.0 2.9----30.08+0.00 46.0 45.5----
2024-06-18 10:54 pm SE 1.9 4.1----30.09- 46.0 45.5----
2024-06-18 10:48 pm- 0.0 4.1----30.09-- 45.5----
2024-06-18 10:42 pm- 0.0 4.1----30.09- 46.2 45.5----
2024-06-18 10:36 pm- 0.0 2.9----30.09- 46.0 45.5----
2024-06-18 10:30 pm SE 1.0 7.0----30.09- 46.2 45.5----
2024-06-18 10:24 pm NE 1.9 5.1----30.09- 46.2 45.5----
2024-06-18 10:18 pm- 0.0 2.9----30.09-------
2024-06-18 10:12 pm- 0.0 2.9----30.09- 46.4 45.5----
2024-06-18 10:06 pm NE 1.9 4.1----30.09- 46.2 45.5----
2024-06-18 10:00 pmENE 1.9 5.1----30.08+0.00 46.2 45.5----
2024-06-18 09:54 pmENE 4.1 8.0----30.09- 46.0 45.5----
2024-06-18 09:48 pmENE 6.0 8.9----30.09-- 45.5----
2024-06-18 09:42 pm E 5.1 8.9----30.08- 46.2 45.5----
2024-06-18 09:36 pm E 5.1 11.1----30.08- 46.2 45.5----
2024-06-18 09:30 pm E 5.1 8.9----30.08-- 45.5----
2024-06-18 09:24 pmENE 7.0 9.9----30.08-- 45.5----
2024-06-18 09:18 pm E 6.0 8.0----30.08-------
2024-06-18 09:12 pmENE 6.0 9.9----30.08- 46.8 45.5----
2024-06-18 09:06 pmENE 2.9 6.0----30.08- 46.9 45.5----
2024-06-18 09:00 pmENE 4.1 7.0----30.08-0.02 47.1 45.7----
2024-06-18 08:54 pmENE 2.9 7.0----30.08- 47.5 45.7----
2024-06-18 08:48 pmENE 5.1 8.0----30.08- 47.5 45.7----
2024-06-18 08:42 pmENE 2.9 6.0----30.08- 48.0 45.7----
2024-06-18 08:36 pmENE 2.9 7.0----30.08- 48.0 45.7----
2024-06-18 08:30 pm E 2.9 6.0----30.08- 48.4 45.7----
2024-06-18 08:24 pm E 1.0 4.1----30.08- 48.6 45.7----
2024-06-18 08:18 pm SE 1.9 5.1----30.08- 48.4 45.9----
2024-06-18 08:12 pm E 1.0 2.9----30.08- 48.4 45.9----
2024-06-18 08:06 pm- 0.0 4.1----30.08- 48.7 45.9----
2024-06-18 08:00 pmESE 1.9 4.1----30.08-0.02 48.6 45.9----
2024-06-18 07:54 pm E 1.0 6.0----30.09- 48.6 45.9----
2024-06-18 07:48 pm E 1.9 5.1----30.09-------
2024-06-18 07:42 pmENE 5.1 7.0----30.08- 48.2 45.9----
2024-06-18 07:36 pmENE 2.9 7.0----30.08- 48.4 45.9----
2024-06-18 07:30 pmENE 2.9 4.1----30.08- 48.7 45.9----
2024-06-18 07:24 pmENE 1.9 6.0----30.08- 48.7 45.9----
2024-06-18 07:18 pm E 1.9 5.1----30.08- 48.7 45.9----
2024-06-18 07:12 pmESE 1.0 2.9----30.08- 49.3 45.9----
2024-06-18 07:06 pm SE 2.9 6.0----30.08- 48.9 45.9----
2024-06-18 07:00 pmSSE 1.9 7.0----30.09-0.01 48.9 45.9----
2024-06-18 06:54 pmSSE 1.9 6.0----30.09- 48.7 45.9----
2024-06-18 06:48 pmESE 4.1 7.0----30.09-- 45.9----
2024-06-18 06:42 pm SE 1.9 7.0----30.09- 48.9 45.9----
2024-06-18 06:36 pm SE 5.1 8.0----30.09- 48.7 45.9----
2024-06-18 06:30 pmENE 2.9 6.0----30.09- 49.1 45.9----
2024-06-18 06:24 pm E 2.9 7.0----30.09- 49.1 45.9----
2024-06-18 06:18 pm NE 1.9 7.0----30.09-- 45.9----
2024-06-18 06:12 pmESE 1.0 2.9----30.09- 49.1 45.9----
2024-06-18 06:06 pmESE 1.0 4.1----30.09- 49.3 45.9----
2024-06-18 06:00 pm N 1.0 4.1----30.10+0.00 49.5 45.7----
2024-06-18 05:54 pm E 1.9 4.1----30.10- 48.9 45.7----
2024-06-18 05:48 pm E 1.0 5.1----30.10- 48.9 45.7----
2024-06-18 05:42 pm NE 2.9 6.0----30.10- 48.7 45.7----
2024-06-18 05:36 pm E 1.0 8.9----30.10- 48.6 45.7----
2024-06-18 05:30 pmENE 5.1 9.9----30.10- 48.2 45.7----
2024-06-18 05:24 pmENE 7.0 12.0----30.10- 48.2 45.7----
2024-06-18 05:18 pm E 5.1 8.0----30.10- 48.6 45.7----
2024-06-18 05:12 pm E 1.9 5.1----30.10- 49.1 45.7----
2024-06-18 05:06 pm E 1.9 4.1----30.10- 48.9 45.7----
2024-06-18 05:00 pm E 2.9 6.0----30.10+0.01 48.7 45.7----
2024-06-18 04:54 pmESE 2.9 7.0----30.10- 48.9 45.7----
2024-06-18 04:48 pmESE 1.0 5.1----30.10- 48.9 45.7----
2024-06-18 04:42 pm SE 1.9 5.1----30.10- 48.7 45.7----
2024-06-18 04:36 pm E 1.9 5.1----30.10- 48.6 45.7----
2024-06-18 04:30 pm E 1.9 6.0----30.10- 48.6 45.7----
2024-06-18 04:24 pmENE 2.9 7.0----30.10- 48.7 45.7----
2024-06-18 04:18 pm E 1.0 5.1----30.10-- 45.7----
2024-06-18 04:12 pm E 4.1 8.9----30.10- 48.4 45.7----
2024-06-18 04:06 pmENE 5.1 8.0----30.10- 48.6 45.7----
2024-06-18 04:00 pmENE 1.9 5.1----30.10+0.02 49.1 45.7----
2024-06-18 03:54 pmENE 4.1 6.0----30.10- 48.7 45.7----